WGS F5 (USA 243) (39168 NORAD) Tracking and Keplerian Element Data

This shows tracking and keplerian element data for the satellite.

Feedback or suggestion? Click here.




ElementValue
Catalog39168
NameWGS F5 (USA 243)
Epoch Orbit4282
Epoch Day34.53033331
Epoch Year2025
RAAN106.0599
Inclination0.0179
Eccentricity4.07E-05
Argument of Perigee223.2844
Mean Anonmoly303.0116
Mean Motion1.00270595
Decay Rate-2.8E-06
L11 39168U 13024A 25034.53033331 -.00000280 00000+0 00000+0 0 9991
L22 39168 0.0179 106.0599 0000407 223.2844 303.0116 1.00270595 42821



Live tracking and technical data element details for WGS F5 (USA 243) (NORAD 39168). WGS F5 (USA 243) can be tracked NOW for your location showing map with azimuth and elevation plus other details from your city location.







IsCatalogInMostPopularTable: catalog: 39168, numindb: 447
Update: records affected: 1



GetName: 39168 WGS F5 (USA 243)

Hit Count: updated at: Thu, 22 May 2025 03:39:15 GMT